Location: Newark
(30.8300°N, 83.2700°W)
Time: 09:00:30
(UTC+00:00)

LightSail 2 - Visible Passes

Search period start: 18 September 2019 00:00
Search period end: 28 September 2019 00:00
Orbit: 699 x 732 km, 24.0° (Epoch: 17 September)

Date Brightness Start Highest point End Pass type
(mag) Time Alt. Az. Time Alt. Az. Time Alt. Az.
18 Sep 7.1 10:42:39 10° SSW 10:46:15 19° SSE 10:49:53 10° ESE visible
19 Sep 7.2 09:47:04 12° S 09:49:12 15° SSE 09:52:09 10° SE visible
20 Sep 7.7 08:53:31 10° SE 08:53:31 10° SE 08:53:50 10° SE visible
20 Sep 6.6 10:32:57 10° SW 10:37:10 27° SSE 10:41:25 10° ESE visible
21 Sep 6.7 09:38:58 21° S 09:40:05 22° SSE 09:43:59 10° ESE visible
22 Sep 7.6 08:45:21 14° SE 08:45:21 14° SE 08:46:26 10° ESE visible
22 Sep 6.2 10:24:23 14° SW 10:28:06 33° S 10:32:39 10° ESE visible
23 Sep 6.3 09:30:45 29° S 09:31:00 29° SSE 09:35:22 10° ESE visible
24 Sep 7.6 08:37:06 14° ESE 08:37:06 14° ESE 08:38:02 10° ESE visible
24 Sep 6.0 10:16:07 20° SW 10:19:02 38° S 10:23:43 10° ESE visible
25 Sep 6.1 09:22:27 34° SSE 09:22:27 34° SSE 09:26:31 10° ESE visible
26 Sep 7.8 08:28:47 12° ESE 08:28:47 12° ESE 08:29:17 10° ESE visible
26 Sep 5.9 10:07:49 25° SW 10:09:59 38° S 10:14:40 10° ESE visible
27 Sep 6.3 09:14:09 32° SE 09:14:09 32° SE 09:17:31 10° ESE visible
27 Sep 6.3 10:53:36 10° WSW 10:58:02 31° S 11:02:28 10° SE visible
